Location: Stara Lesna
(49.1528°N, 20.2911°E)
Time: 02:53:53
(UTC+02:00)

Cosmos 407 Rocket - Pass Details

Date: 13 July 2020
Orbit: 744 x 786 km, 74.0° (Epoch: 11 August)

Event Time Altitude Azimuth Distance (km) Brightness Sun altitude
Exits shadow 03:32:23 12° 233° (SW) 2,215 5.3 -9.9°
Maximum altitude 03:37:03 41° 302° (WNW) 1,135 4.3 -9.4°
Drops below altitude 10° 03:42:06 10° 12° (NNE) 2,357 7.1 -8.8°
Sets 03:44:39 0° 20° (NNE) 3,287 8.3 -8.6°
